• în România
  • Lista ţărilor
  • Pe 7 zile
  • Temperatura apei
  • Hartă satelitară
  • Meteo pe hartă
  • Widget-uri
  • user-avatar
    Intrare

    Meteo pe oră la Knighton

    Astăzi, 22 Iulie, Duminică

    Timp Temperatura Precipitaţii Vânt Presiune Umiditate
    00:00 +14°C° 0 mm 1 m/s 732 mmHg 84%
    01:00 +14°C° 0 mm 1 m/s 732 mmHg 85%
    02:00 +13°C° 0 mm 1 m/s 732 mmHg 86%
    03:00 +13°C° 0 mm 1 m/s 732 mmHg 87%
    04:00 +13°C° 0 mm 1 m/s 732 mmHg 86%
    05:00 +14°C° 0 mm 1 m/s 733 mmHg 85%
    06:00 +15°C° 0 mm 1 m/s 733 mmHg 84%
    07:00 +16°C° 0 mm 1 m/s 733 mmHg 81%
    08:00 +18°C° 0 mm 1 m/s 733 mmHg 79%
    09:00 +19°C° 0 mm 2 m/s 733 mmHg 77%
    10:00 +20°C° 0 mm 2 m/s 734 mmHg 74%
    11:00 +21°C° 0 mm 2 m/s 734 mmHg 72%
    12:00 +23°C° 0 mm 2 m/s 734 mmHg 70%
    13:00 +24°C° 0,1 mm 2 m/s 733 mmHg 70%
    14:00 +24°C° 0,1 mm 2 m/s 733 mmHg 69%
    15:00 +25°C° 0,1 mm 2 m/s 733 mmHg 69%
    16:00 +24°C° 0,1 mm 2 m/s 733 mmHg 72%
    17:00 +24°C° 0,1 mm 2 m/s 733 mmHg 75%
    18:00 +23°C° 0,1 mm 2 m/s 733 mmHg 78%
    19:00 +21°C° 0,1 mm 2 m/s 733 mmHg 82%
    20:00 +20°C° 0,1 mm 2 m/s 733 mmHg 87%
    21:00 +19°C° 0,1 mm 1 m/s 733 mmHg 91%
    22:00 +19°C° 0 mm 1 m/s 733 mmHg 92%
    23:00 +18°C° 0 mm 1 m/s 734 mmHg 92%

    Mâine, 23 Iulie, Luni

    Timp Temperatura Precipitaţii Vânt Presiune Umiditate
    00:00 +18°C° 0 mm 1 m/s 734 mmHg 93%
    01:00 +16°C° 0 mm 1 m/s 733 mmHg 93%
    02:00 +16°C° 0 mm 1 m/s 733 mmHg 94%
    03:00 +16°C° 0 mm 1 m/s 733 mmHg 94%
    04:00 +16°C° 0 mm 1 m/s 733 mmHg 94%
    05:00 +16°C° 0 mm 1 m/s 733 mmHg 93%
    06:00 +17°C° 0 mm 2 m/s 733 mmHg 93%
    07:00 +18°C° 0 mm 2 m/s 733 mmHg 88%
    08:00 +19°C° 0 mm 2 m/s 733 mmHg 84%
    09:00 +21°C° 0 mm 3 m/s 733 mmHg 80%
    10:00 +21°C° 0 mm 3 m/s 733 mmHg 79%
    11:00 +22°C° 0 mm 3 m/s 733 mmHg 77%
    12:00 +22°C° 0 mm 4 m/s 733 mmHg 76%
    13:00 +22°C° 0,1 mm 4 m/s 733 mmHg 76%
    14:00 +22°C° 0,1 mm 4 m/s 733 mmHg 76%
    15:00 +22°C° 0,1 mm 4 m/s 732 mmHg 76%
    16:00 +22°C° 0 mm 4 m/s 732 mmHg 76%
    17:00 +21°C° 0 mm 4 m/s 732 mmHg 77%
    18:00 +21°C° 0 mm 4 m/s 732 mmHg 77%
    19:00 +20°C° 0 mm 3 m/s 732 mmHg 82%
    20:00 +18°C° 0 mm 3 m/s 732 mmHg 88%
    21:00 +17°C° 0 mm 2 m/s 732 mmHg 93%
    22:00 +16°C° 0 mm 2 m/s 732 mmHg 94%
    23:00 +15°C° 0 mm 2 m/s 732 mmHg 95%

    Poimâine, 24 Iulie, Marţi

    Timp Temperatura Precipitaţii Vânt Presiune Umiditate
    00:00 +14°C° 0 mm 2 m/s 731 mmHg 96%
    01:00 +14°C° 0 mm 2 m/s 731 mmHg 95%
    02:00 +14°C° 0 mm 2 m/s 731 mmHg 95%
    03:00 +13°C° 0 mm 1 m/s 731 mmHg 95%
    04:00 +14°C° 0 mm 2 m/s 731 mmHg 94%
    05:00 +14°C° 0 mm 2 m/s 731 mmHg 93%
    06:00 +15°C° 0 mm 2 m/s 731 mmHg 92%
    07:00 +16°C° 0 mm 2 m/s 731 mmHg 87%
    08:00 +18°C° 0 mm 2 m/s 731 mmHg 81%
    09:00 +19°C° 0 mm 3 m/s 732 mmHg 75%
    10:00 +20°C° 0,1 mm 3 m/s 732 mmHg 73%
    11:00 +21°C° 0,1 mm 3 m/s 732 mmHg 70%
    12:00 +22°C° 0,1 mm 3 m/s 732 mmHg 68%
    13:00 +21°C° 0,3 mm 3 m/s 732 mmHg 70%
    14:00 +21°C° 0,3 mm 3 m/s 732 mmHg 72%
    15:00 +21°C° 0,3 mm 4 m/s 732 mmHg 73%
    16:00 +20°C° 0,1 mm 3 m/s 732 mmHg 75%
    17:00 +20°C° 0,1 mm 3 m/s 732 mmHg 76%
    18:00 +19°C° 0,1 mm 3 m/s 732 mmHg 77%
    19:00 +18°C° 0 mm 2 m/s 732 mmHg 82%
    20:00 +16°C° 0 mm 2 m/s 732 mmHg 86%
    21:00 +14°C° 0 mm 2 m/s 732 mmHg 91%
    22:00 +14°C° 0 mm 1 m/s 732 mmHg 91%
    23:00 +13°C° 0 mm 1 m/s 732 mmHg 92%

    25 Iulie, Miercuri

    Timp Temperatura Precipitaţii Vânt Presiune Umiditate
    00:00 +12°C° 0 mm 1 m/s 732 mmHg 92%
    01:00 +12°C° 0 mm 1 m/s 732 mmHg 92%
    02:00 +12°C° 0 mm 1 m/s 732 mmHg 92%
    03:00 +11°C° 0 mm 1 m/s 732 mmHg 93%
    04:00 +12°C° 0 mm 1 m/s 732 mmHg 91%
    05:00 +12°C° 0 mm 1 m/s 732 mmHg 90%
    06:00 +13°C° 0 mm 1 m/s 732 mmHg 88%
    07:00 +15°C° 0 mm 1 m/s 732 mmHg 83%
    08:00 +18°C° 0 mm 1 m/s 732 mmHg 77%
    09:00 +19°C° 0 mm 1 m/s 733 mmHg 71%
    10:00 +20°C° 0 mm 2 m/s 732 mmHg 67%
    11:00 +21°C° 0 mm 2 m/s 732 mmHg 62%
    12:00 +22°C° 0 mm 3 m/s 732 mmHg 58%
    13:00 +24°C° 0 mm 3 m/s 732 mmHg 58%
    14:00 +24°C° 0 mm 3 m/s 732 mmHg 58%
    15:00 +24°C° 0 mm 3 m/s 732 mmHg 57%
    16:00 +24°C° 0 mm 3 m/s 731 mmHg 60%
    17:00 +22°C° 0 mm 3 m/s 731 mmHg 63%
    18:00 +23°C° 0 mm 2 m/s 731 mmHg 66%
    19:00 +20°C° 0 mm 2 m/s 731 mmHg 72%
    20:00 +18°C° 0 mm 2 m/s 731 mmHg 78%
    21:00 +16°C° 0 mm 2 m/s 731 mmHg 84%
    22:00 +16°C° 0 mm 2 m/s 731 mmHg 86%
    23:00 +15°C° 0 mm 2 m/s 731 mmHg 89%

    26 Iulie, Joi

    Timp Temperatura Precipitaţii Vânt Presiune Umiditate
    00:00 +14°C° 0 mm 2 m/s 731 mmHg 91%
    01:00 +14°C° 0 mm 2 m/s 731 mmHg 92%
    02:00 +14°C° 0 mm 2 m/s 731 mmHg 94%
    03:00 +14°C° 0 mm 2 m/s 731 mmHg 95%
    04:00 +14°C° 0 mm 2 m/s 732 mmHg 94%
    05:00 +15°C° 0 mm 2 m/s 732 mmHg 93%
    06:00 +15°C° 0 mm 2 m/s 732 mmHg 92%
    07:00 +16°C° 0 mm 2 m/s 733 mmHg 87%
    08:00 +18°C° 0 mm 2 m/s 733 mmHg 81%
    09:00 +19°C° 0 mm 2 m/s 733 mmHg 76%
    10:00 +20°C° 0,1 mm 3 m/s 733 mmHg 73%
    11:00 +20°C° 0,1 mm 3 m/s 733 mmHg 70%
    12:00 +21°C° 0,1 mm 3 m/s 734 mmHg 67%
    13:00 +22°C° 0 mm 3 m/s 733 mmHg 65%
    14:00 +22°C° 0 mm 3 m/s 733 mmHg 64%
    15:00 +22°C° 0 mm 3 m/s 733 mmHg 62%
    16:00 +22°C° 0 mm 3 m/s 733 mmHg 63%
    17:00 +23°C° 0 mm 2 m/s 733 mmHg 65%
    18:00 +21°C° 0 mm 2 m/s 733 mmHg 67%
    19:00 +20°C° 0 mm 2 m/s 733 mmHg 73%
    20:00 +18°C° 0 mm 2 m/s 733 mmHg 79%
    21:00 +16°C° 0 mm 1 m/s 733 mmHg 85%
    22:00 +15°C° 0 mm 1 m/s 733 mmHg 86%
    23:00 +15°C° 0 mm 1 m/s 733 mmHg 88%

    27 Iulie, Vineri

    Timp Temperatura Precipitaţii Vânt Presiune Umiditate
    00:00 +14°C° 0 mm 1 m/s 733 mmHg 89%
    01:00 +14°C° 0 mm 1 m/s 732 mmHg 90%
    02:00 +13°C° 0 mm 1 m/s 732 mmHg 91%
    03:00 +13°C° 0 mm 1 m/s 732 mmHg 92%
    04:00 +13°C° 0 mm 1 m/s 732 mmHg 91%
    05:00 +14°C° 0 mm 1 m/s 732 mmHg 91%
    06:00 +14°C° 0 mm 1 m/s 732 mmHg 91%
    07:00 +16°C° 0 mm 2 m/s 732 mmHg 83%
    08:00 +18°C° 0 mm 3 m/s 733 mmHg 75%
    09:00 +20°C° 0 mm 4 m/s 733 mmHg 68%
    10:00 +21°C° 0 mm 4 m/s 733 mmHg 64%
    11:00 +21°C° 0 mm 4 m/s 733 mmHg 61%
    12:00 +22°C° 0 mm 4 m/s 733 mmHg 58%
    13:00 +22°C° 0,1 mm 4 m/s 733 mmHg 57%
    14:00 +23°C° 0,1 mm 4 m/s 733 mmHg 57%
    15:00 +23°C° 0,1 mm 4 m/s 733 mmHg 57%
    16:00 +22°C° 0,1 mm 4 m/s 733 mmHg 60%
    17:00 +21°C° 0,1 mm 3 m/s 733 mmHg 63%
    18:00 +21°C° 0,1 mm 3 m/s 733 mmHg 66%
    19:00 +19°C° 0 mm 3 m/s 733 mmHg 73%
    20:00 +17°C° 0 mm 2 m/s 733 mmHg 80%
    21:00 +15°C° 0 mm 2 m/s 733 mmHg 87%
    22:00 +14°C° 0 mm 2 m/s 733 mmHg 88%
    23:00 +13°C° 0 mm 2 m/s 733 mmHg 89%
    Arată mai mult